Location: Peterborough
(44.3091°N, 78.3197°W)
Time: 19:02:48
(UTC-04:00)

Vanguard 3 - Pass Details

Date: 29 March 2023
Orbit: 507 x 3246 km, 33.4° (Epoch: 06 June)

Event Time Altitude Azimuth Distance (km) Brightness Sun altitude
Exits shadow 01:56:00 33° 129° (SE) 4,461 10.5 -41.7°
Drops below altitude 10° 02:09:22 10° 89° (E) 6,126 11.7 -41.0°
Sets 02:14:35 0° 82° (E) 7,002 12.2 -40.7°
